Probability
0 0 0 0 0 0 0 0 0 0 0 0 0 0 0 0 0 0 0 0 0 0 0 0 0 0 0 0 0 0 0 0 0 0 0 0 0 0 0 0 0 0 0
0 0 0 0 0 0 0 0 0 0 0 0 0 0 0 0 0 0 0 0 0 0 0 0 0 0 0 0 0 0 0 0 0 0 0 0 0 0 0 0 0 0 0
0 0 0 0 0 0 0 0 0 0 0 0 0 0 0 0 0 0 0 0 0 0 0 0 0 0 0 0 0 0 0 0 0 0 0 0 0 0 0 0 0 0 0
0 0 0 0 0 0 0 0 0 0 0 0 0 0 0 0 0 0 0 0 0 0 0 0 0 0 0 0 0 0 0 0 0 0 0 0 0 0 0 0 0 0 0
0 0 0 0 0 0 0 0 0 0 0 0 0 0 0 0 0 0 0 0 0 0 0 0 0 0 0 0 0 0 0 0 0 0 0 0 0 0 0 0 0 0 0
0 0 0 0 0 0 0 0 0 0 0 0 0 0 0 0 0 0 0 0 0 0 0 0 0 0 0 0 0 0 0 0 0 0 0 0 0 0 0 0 0 0 0
0 0 0 0 0 0 0 0 0 0 0 0 0 0 0 0 0 0 0 0 0 0 0 0 0 0 0 0 0 0 0 0 0 0 0 0 0 0 0 0 0 0 0
0 0 0 0 0 0 0 0 0 0 0 0 0 0 0 0 0 0 0 0 0 0 0 0 0 0 0 0 0 0 0 0 0 0 0 0 0 0 0 0 0 0 0
0 0 0 0 0 0 0 0 0 0 0 0 0 0 0 0 0 0 0 0 0 0 0 0 0 0 0 0 0 0 0 0 0 0 0 0 0 0 0 0 0 0 0
0 0 0 0 0 0 0 0 0 0 0 0 0 0 0 0 0 0 0 0 0 0 0 0 0 0 0 0 0 0 0 0 0 0 0 0 0 0 0 0 0 0 0
0 0 0 0 0 0 0 0 0 0 0 0 0 0 0 0 0 0 0 0 0 0 0 0 0 0 0 0 0 0 0 0 0 0 0 0 0 0 0 0 0 0 0
0 0 0 0 0 0 0 0 0 0 0 0 0 0 0 0 0 0 0 0 0 0 0 0 0 0 0 0 0 0 0 0 0 0 0 0 0 0 0 0 0 0 0
0 0 0 0 0 0 0 0 0 0 0 0 0 0 0 0 0 0 0 0 0 0 0 0 0 0 0 0 0 0 0 0 0 0 0 0 0 0 0 0 0 0 0
0 0 0 0 0 0 0 0 0 0 0 0 0 0 0 0 0 0 0 0 0 0 0 0 0 0 0 0 0 0 0 0 0 0 0 0 0 0 0 0 0 0 0
0 0 0 0 0 0 0 0 0 0 0 0 0 0 0 0 0 0 0 0 0 0 0 0 0 0 0 0 0 0 0 0 0 0 0 0 0 0 0 0 0 0 0
0 0 0 0 0 0 0 0 0 0 0 0 0 0 0 0 0 0 0 0 0 0 0 0 0 0 0 0 0 0 0 0 0 0 0 0 0 0 0 0 0 0 0
0 0 0 0 0 0 0 0 0 0 0 0 0 0 0 0 0 0 0 0 0 0 0 0 0 0 0 0 0 0 0 0 0 0 0 0 0 0 0 0 0 0 0
0 0 0 0 0 0 0 0 0 0 0 0 0 0 0 0 0 0 0 0 0 0 0 0 0 0 0 0 0 0 0 0 0 0 0 0 0 0 0 0 0 0 0
0 0 0 0 0 0 0 0 0 0 0 0 0 0 0 0 0 0 0 0 0 0 0 0 0 0 0 0 0 0 0 0 0 0 0 0 0 0 0 0 0 0 0
0 0 0 0 0 0 0 0 0 0 0 0 0 0 0 0 0 0 0 0 0 0 0 0 0 0 0 0 0 0 0 0 0 0 0 0 0 0 0 0 0 0 0
0 0 0 0 0 0 0 0 0 0 0 0 0 0 0 0 0 0 0 0 0 0 0 0 0 0 0 0 0 0 0 0 0 0 0 0 0 0 0 0 0 0 0
0 0 0 0 0 0 0 0 0 0 0 0 0 0 0 0 0 0 0 0 0 0 0 0 0 0 0 0 0 0 0 0 0 0 0 0 0 0 0 0 0 0 0
0 0 0 0 0 0 0 0 0 0 0 0 0 0 0 0 0 0 0 0 0 0 0 0 0 0 0 0 0 0 0 0 0 0 0 0 0 0 0 0 0 0 0
0 0 0 0 0 0 0 0 0 0 0 0 0 0 0 0 0 0 0 0 0 0 0 0 0 0 0 0 0 0 0 0 0 0 0 0 0 0 0 0 0 0 0
0 0 0 0 0 0 0 0 0 0 0 0 0 0 0 0 0 0 0 0 0 0 0 0 0 0 0 0 0 0 0 0 0 0 0 0 0 0 0 0 0 0 0
0 0 0 0 0 0 0 0 0 0 0 0 0 0 0 0 0 0 0 0 0 0 0 0 0 0 0 0 0 0 0 0 0 0 0 0 0 0 0 0 0 0 0
Wind_Speed
14 14 14 13 13 12 11 12 11 10 10 10 10 9 9 9 8 7 7 7 7 6 6 6 6 6 6 6 5 6 6 6 9 8 7 7 9 11 10 10 11 11 10
13 13 13 12 12 12 12 11 10 10 10 9 9 9 9 9 8 8 8 7 7 7 7 7 7 6 7 7 6 7 6 6 8 10 9 9 10 11 10 11 11 10 10
12 13 13 12 11 11 10 10 10 10 9 9 9 9 8 8 7 7 7 7 7 7 7 7 7 7 7 7 7 7 6 6 7 9 10 8 9 9 10 10 11 9 11
12 12 12 11 10 10 10 9 9 9 8 8 8 7 7 7 8 8 7 7 7 7 7 7 7 7 8 9 7 7 7 8 8 8 9 9 9 9 8 9 9 8 9
11 11 11 10 9 9 9 8 8 7 7 7 6 6 6 6 9 10 9 8 8 8 7 7 7 6 7 8 9 10 10 9 9 8 9 9 9 9 9 8 9 10 10
10 10 9 9 9 8 8 7 7 6 6 6 6 6 7 8 7 8 11 10 8 8 8 8 7 4 5 7 8 10 11 11 11 10 9 10 11 10 9 8 9 9 8
9 9 8 8 8 7 6 6 6 6 5 5 6 6 7 8 6 7 10 11 9 8 8 8 7 6 7 9 9 11 11 11 12 10 11 11 11 11 11 11 9 9 10
8 8 7 7 7 6 6 6 5 5 5 5 5 6 6 7 6 8 13 10 7 7 7 7 8 8 8 10 13 13 11 8 7 8 9 10 10 10 10 10 10 10 10
7 7 6 6 5 5 5 5 4 4 4 4 5 6 6 5 7 8 13 9 6 8 7 7 7 8 8 10 12 12 11 9 5 7 10 12 13 14 12 9 8 7 8
6 6 5 4 4 4 4 3 3 3 4 4 5 5 6 6 5 6 12 8 8 8 7 6 2 6 10 11 11 11 11 10 10 8 8 9 10 10 12 9 7 7 7
5 4 3 3 2 2 2 2 2 3 3 4 4 4 4 5 3 3 8 8 9 9 7 7 6 8 11 12 11 10 9 11 11 9 7 6 5 4 3 4 4 6 7
3 3 2 2 2 1 1 1 2 3 2 2 3 3 3 3 4 4 5 7 8 9 7 7 7 11 14 14 10 8 12 12 8 6 6 6 5 5 5 5 5 6 6
2 2 2 1 1 1 1 1 1 2 3 3 4 4 4 4 2 2 5 8 9 8 6 8 11 14 14 9 7 10 11 7 6 6 6 6 6 5 5 4 4 5 5
1 1 1 1 0 1 1 2 3 4 4 4 4 5 4 4 6 8 8 7 6 6 7 7 9 11 9 6 6 5 4 5 6 6 7 6 5 5 4 5 5 5 5
1 1 1 0 1 1 2 4 5 6 7 6 6 6 6 6 8 10 9 9 9 9 11 7 5 6 7 7 7 6 5 5 6 6 7 7 6 5 5 5 4 4 5
2 1 1 0 1 0 2 4 5 4 4 2 3 6 4 5 8 10 10 11 12 13 10 6 7 7 8 8 8 8 8 8 8 8 8 8 7 7 6 5 5 5 5
2 2 2 1 0 0 1 1 4 5 4 4 2 1 4 7 7 9 11 13 13 12 6 6 7 8 8 8 8 8 8 9 8 8 8 8 8 8 7 6 6 6 6
2 1 2 0 0 1 1 1 2 2 2 4 6 4 2 4 5 8 11 11 3 3 6 7 7 8 8 8 8 9 9 9 9 9 9 9 9 8 8 7 7 8 7
2 1 1 1 0 1 1 1 2 2 2 2 2 4 3 5 7 8 9 5 7 7 7 7 7 7 8 8 8 8 9 9 9 9 8 9 9 8 8 8 7 6 6
1 2 2 1 1 1 1 1 2 2 2 2 3 4 4 3 2 3 4 6 6 7 8 8 7 8 8 9 9 9 9 9 10 9 9 9 9 9 9 9 9 8 7
0 4 5 4 1 1 1 2 2 2 2 2 4 5 6 5 4 5 6 6 7 7 8 8 8 8 8 9 9 11 11 10 10 10 10 9 9 9 8 8 8 9 8
2 0 1 1 2 2 1 1 2 2 2 3 2 3 2 3 4 5 6 6 6 6 7 7 7 7 8 9 9 10 10 11 11 11 10 10 9 8 8 8 9 9 10
1 0 2 2 2 3 1 1 2 2 2 3 3 3 3 4 5 5 6 6 6 6 6 7 7 8 9 8 8 9 10 11 11 12 11 10 9 8 8 8 9 10 10
1 1 2 3 2 2 2 2 2 2 2 2 3 3 4 4 4 5 6 6 6 6 6 6 7 10 13 10 9 9 10 11 12 11 13 11 9 9 8 8 9 11 10
2 2 2 2 2 2 2 2 2 2 2 2 3 3 3 4 4 5 5 6 6 7 8 7 7 9 12 14 13 13 12 11 10 11 12 9 9 10 10 9 8 9 9
3 2 2 3 3 2 2 2 2 2 2 2 2 3 3 4 4 5 5 6 6 6 7 7 10 11 13 12 14 13 12 12 13 13 12 8 8 9 10 9 10 9 10
Wind_Direction
77 80 81 82 84 86 87 89 88 85 82 78 75 72 66 59 53 47 42 37 27 21 7 2 352 341 329 320 313 307 305 304 299 303 306 306 303 297 302 300 294 289 282
83 83 83 83 84 85 85 85 86 83 80 78 75 70 65 59 50 42 33 27 19 10 1 349 341 334 327 312 318 312 309 307 296 302 304 303 301 298 297 297 294 294 297
87 87 86 85 85 85 86 85 83 82 78 74 70 66 59 53 47 38 27 19 10 2 352 343 337 332 325 329 316 311 309 304 298 295 297 301 297 300 302 295 297 299 295
89 88 86 85 85 86 86 84 83 82 78 72 66 61 52 43 34 22 16 9 359 353 347 338 335 335 333 328 313 314 313 309 301 297 299 301 303 306 306 305 305 306 307
94 92 91 92 92 91 88 84 81 76 72 65 58 53 42 43 30 7 353 357 351 344 342 337 340 340 333 324 321 325 318 312 308 306 304 305 309 316 314 314 310 309 305
96 95 95 96 94 91 88 85 79 70 61 53 45 36 32 43 39 7 343 339 338 340 340 336 327 304 333 292 285 293 297 299 309 307 303 303 307 310 311 308 309 307 307
100 99 100 97 93 91 88 81 70 61 52 42 33 25 28 56 33 1 343 320 328 339 334 332 330 347 321 332 317 289 275 258 262 283 292 297 304 308 311 310 308 306 302
104 102 99 97 93 86 77 68 57 47 39 33 24 17 16 56 36 358 333 308 328 333 332 330 330 330 357 343 320 310 308 305 285 275 290 297 300 307 306 301 300 298 294
104 101 94 89 86 79 69 58 45 33 26 20 28 16 11 52 45 358 333 321 338 339 335 338 333 332 14 335 310 306 313 319 295 257 268 275 279 278 280 293 301 302 311
102 97 90 79 66 60 53 38 37 18 11 6 26 16 12 20 53 1 335 330 345 339 337 339 7 343 332 317 308 309 317 326 324 312 281 263 261 255 242 261 296 308 317
104 97 87 70 57 45 38 27 4 357 9 3 8 13 25 21 54 35 343 335 341 333 334 338 353 348 324 313 300 296 310 309 304 306 306 310 312 307 289 284 297 301 311
109 101 83 46 13 41 26 357 345 332 324 1 8 12 33 47 29 17 322 307 306 314 324 332 337 328 313 303 299 306 300 291 293 310 318 325 329 334 331 324 314 306 298
114 73 42 20 6 358 331 333 317 322 341 6 9 16 19 14 63 221 281 285 281 295 318 307 296 294 295 290 268 280 288 297 321 327 332 331 331 331 317 311 309 310 309
86 31 342 332 19 89 330 351 358 6 7 15 15 10 6 11 17 4 345 335 322 316 328 305 277 270 272 297 306 304 314 335 334 329 329 327 329 333 331 341 343 341 339
300 311 308 340 80 96 69 35 12 46 31 1 5 2 2 6 12 342 324 332 335 335 320 314 349 360 360 2 357 356 348 346 343 341 335 336 342 347 352 351 348 348 351
280 277 299 7 74 341 123 126 80 51 93 58 4 341 360 15 334 321 317 311 303 300 305 349 6 2 3 0 354 352 355 356 351 345 345 347 348 351 359 359 355 355 359
306 320 307 332 47 82 53 91 133 151 181 189 200 301 329 335 322 319 318 312 292 289 317 9 6 2 360 358 354 352 353 353 349 348 352 353 354 355 2 4 4 2 5
280 156 274 285 41 63 67 56 46 59 123 153 172 193 256 290 298 306 309 308 325 347 11 8 2 1 357 356 354 352 350 351 354 353 356 356 356 355 360 6 11 7 2
300 6 5 33 82 79 63 57 59 47 37 42 86 142 209 242 239 260 293 347 12 11 8 5 1 357 354 352 351 350 348 350 355 354 359 355 354 353 359 3 8 9 356
179 69 310 272 162 122 90 54 50 43 44 45 43 28 5 345 8 19 13 15 8 8 4 359 356 354 354 351 350 353 352 354 356 356 357 354 352 353 356 2 3 6 12
225 143 192 234 177 95 72 56 43 35 47 52 58 52 335 334 18 20 16 14 10 3 1 351 347 354 358 353 355 355 355 356 359 356 353 351 351 354 355 3 4 7 12
299 268 177 108 108 91 61 64 54 54 56 53 67 117 248 315 22 21 17 14 9 3 0 351 347 358 359 352 352 349 353 357 357 352 346 345 349 356 2 7 11 13 15
253 145 134 127 117 127 197 85 68 64 59 55 43 36 34 25 24 21 15 13 8 5 2 357 353 0 0 353 348 348 357 354 343 336 334 340 348 358 6 9 13 15 23
98 131 133 127 132 137 109 96 83 71 63 52 45 36 30 27 24 21 12 13 9 10 7 5 4 4 2 1 355 2 10 347 330 323 329 334 349 358 4 7 12 14 14
96 111 118 115 116 109 103 98 88 83 72 55 41 35 29 24 24 23 19 14 10 14 12 13 7 8 5 8 9 5 352 330 322 323 318 333 360 5 359 5 9 13 14
93 100 102 105 101 92 98 106 99 88 78 60 41 31 27 26 25 22 21 16 8 15 13 13 10 16 13 9 7 358 343 335 332 324 314 336 5 14 357 358 5 11 15